Regional Weather Roundup
Issued by NWS Wilmington, NC

Home | Current Version | Previous Version | Text Only | Print | Product List | Glossary On
Versions: 1 2 3 4 5 6 7 8 9 10 11 12 13 14 15 16 17 18 19 20 21 22 23 24 25 26 27 28 29 30 31 32 33 34 35 36 37 38 39 40 41 42 43 44 45 46 47 48 49 50
000
ASUS42 KILM 310410
RWRILM
RWRILM
REGIONAL HOURLY WEATHER ROUNDUP
NATIONAL WEATHER SERVICE WILMINGTON NC
1100 PM EST FRI JAN 30 2015

NOTE: "FAIR" INDICATES FEW OR NO CLOUDS BELOW 12,000 FEET WITH NO
SIGNIFICANT WEATHER AND/OR OBSTRUCTIONS TO VISIBILITY.

...............WFO WILMINGTON COUNTY WARNING AREA...............

......COASTAL NC AND SC COUNTIES......

CITY           SKY/WX    TMP DP  RH WIND       PRES   REMARKS
WILMINGTON     CLEAR     38  15  39 NW16      30.26R WCI  29
SOUTHPORT      PTCLDY    38  19  44 NW6       30.27R WCI  34
N MYRTLE BEACH CLEAR     41  13  31 N12G18    30.28R
MYRTLE BEACH   CLEAR     43  16  33 NW10      30.31R

......INLAND NC AND SC COUNTIES.......

CITY           SKY/WX    TMP DP  RH WIND       PRES   REMARKS
LUMBERTON      PTCLDY    37  13  37 N6        30.31R WCI  32
ELIZABETHTOWN  PTCLDY    37   9  31 NW5       30.30R WCI  33
WHITEVILLE     PTCLDY    38  15  38 NW3       30.30R
FLORENCE       CLEAR     38  15  39 N9        30.32R WCI  31
DARLINGTON     CLEAR     36  16  44 N6        30.34R WCI  31

....................REST OF NORTH CAROLINA......................

.........EASTERN NC.........

CITY           SKY/WX    TMP DP  RH WIND       PRES   REMARKS
CAPE HATTERAS  CLEAR     36  18  48 N13G26    30.18R WCI  27
JACKSONVILLE   CLEAR     36   9  32 NW6G16    30.28R WCI  31
MOREHEAD CITY  CLEAR     37  17  44 N20       30.23R WCI  27
KENANSVILLE    CLEAR     34  10  37 NW10G17   30.29R WCI  26
NEW BERN       CLEAR     37  13  37 NW10      30.26R WCI  30
ELIZABETH CITY CLEAR     32  11  41 NW22G30   30.21R WCI  19

.........CENTRAL NC.........

CITY           SKY/WX    TMP DP  RH WIND       PRES   REMARKS
RALEIGH DURHAM FAIR      31   6  35 VRB5      30.31R WCI  26
ROCKY MOUNT    CLEAR     32  11  41 NW7       30.29R WCI  26
ROANOKE RAPIDS NOT AVBL
FAYETTEVILLE   CLEAR     35   7  31 N10       30.31R WCI  27
HOFFMAN        PTCLDY    31   9  40 N2        30.34R

.........WESTERN NC.........

CITY           SKY/WX    TMP DP  RH WIND       PRES   REMARKS
CHARLOTTE      CLEAR     32  11  41 NW3       30.31R
GREENSBORO     CLEAR     28   7  41 CALM      30.29R
HICKORY        NOT AVBL
BOONE          NOT AVBL
ASHEVILLE      NOT AVBL

.....................REST OF SOUTH CAROLINA.....................

.........EASTERN SC.........

CITY           SKY/WX    TMP DP  RH WIND       PRES   REMARKS
CHARLESTON     CLEAR     40  25  55 N6        30.30R
BEAUFORT MCAS  CLEAR     42  26  53 N6        30.29R
HILTON HEAD    CLEAR     43  34  70 N5        30.30R

.........CENTRAL SC.........

CITY           SKY/WX    TMP DP  RH WIND       PRES   REMARKS
COLUMBIA       CLEAR     41  17  38 N6        30.31R
ORANGEBURG     CLEAR     40  21  46 N3        30.31R
SUMTER SHAW    CLEAR     35  18  50 N9        30.30R WCI  27

.........WESTERN SC.........

CITY           SKY/WX    TMP DP  RH WIND       PRES   REMARKS
GREENVILLE     NOT AVBL
ROCK HILL      PTCLDY    33  16  49 CALM      30.31R
ANDERSON       CLEAR     35  15  44 CALM      30.31R
CLEMSON        NOT AVBL
GREENWOOD      CLEAR     36  14  40 N7        30.32R WCI  30


...................COASTAL AND OFFSHORE REPORTS..................

................LOCAL PIERS AND NC RESERVE................


STATION/POSITION TIME  SKY/WX   TEMP    WIND        PRES    VSBY
                                AIR SEA DIR/SP/G
                 (UTC)          (F)     (DEG/KT/KT) (MB)    (MI)
JOHNY MRCER PIER 0400            40 53  330/ 14/ 16 1023.8R
NC RESRV MASNBRO 0300            41     230/  2     1024.0S
OCEAN CREST PIER 0400            41 52  280/ 10/ 14 1023.9R
SPRINGMAID  PIER 0400            42 50  320/ 10/ 14 1025.4R


................COASTAL AND OFFSHORE BUOYS................


STATION/POSITION TIME  SKY/WX   TEMP    WIND        PRES    VSBY
                                AIR SEA DIR/SP/G
                 (UTC)          (F)     (DEG/KT/KT) (MB)    (MI)
DIMNDSHOAL 41025 0400            42 65  330/ 25/ 31 1020.9R
WVE H/P(F/S)=  6/ 6 WND WVE H/P(F/S)=  7/ 6 SWL H/P/D(F/S/D)=  2/ 40/10

CAPE LOOKOUT     0300            41     330/ 20/ 26 1022.4R
ONSLOW BAY 41036 NOT AVBL
5 WRITEBCH 41038 0300            44 52  340/ 19/ 23 1023.6R
MASONBORO  41110 0400               52                N/A
WVE H/P(F/S)=  2/ 3 WND WVE H/P(F/S)=  2/ 3

WILM HARBR 41108 0400               53                N/A
WVE H/P(F/S)=  3/ 4 WND WVE H/P(F/S)=  3/ 4

27WRITEBCH 41037 NOT AVBL
FRYING PAN 41013 0400            47 62  330/ 25/ 31 1024.1R
WVE H/P(F/S)=  6/ 5 WND WVE H/P(F/S)=  7/ 5

SUNST NRSH 41024 0300            44     340/ 12/ 14   N/A
CAPRS NRSH 41029 0300            48      10/ 14/ 14   N/A
EDISTO     41004 0400            53 68  350/ 23/ 29 1023.8R
WVE H/P(F/S)=  6/ 6 WND WVE H/P(F/S)=  5/ 6 SWL H/P/D(F/S/D)=  2/11



..........OFFSHORE BUOYS BEYOND 100 NM OFFSHORE...........
.....IN A TRIANGLE---HAT TO BERMUDA TO BAHAMAS TO HAT.....


STATION/POSITION TIME  SKY/WX   TEMP    WIND        PRES    VSBY
                                AIR SEA DIR/SP/G
                 (UTC)          (F)     (DEG/KT/KT) (MB)    (MI)
150E HAT   41001 NOT AVBL
W BERMUDA  41048 0320            63 71  290/ 29/ 37 1011.1R
WVE H/P(F/S)= 11/ 8 WND WVE H/P(F/S)= 10/ 8 SWL H/P/D(F/S/D)=  3/130/14

ATLANTIC S 41049 0257            69 74  200/  6/  8 1016.3
WVE H/P(F/S)=  8/ 9 WND WVE H/P(F/S)=  2/ 4 SWL H/P/D(F/S/D)=  8/ 10/ 9

E BAHAMAS  41046 0301            72 78  340/  6/  8 1017.9
WVE H/P(F/S)=  7/10 WND WVE H/P(F/S)=  2/ 4 SWL H/P/D(F/S/D)=  7/350/10

NE BAHAMAS 41047 0342            71 75  270/ 17/ 25 1017.1F
WVE H/P(F/S)=  5/ 5 WND WVE H/P(F/S)=  5/ 5 SWL H/P/D(F/S/D)=  2/ 10/ 9

120E CANVRL41010 0400            65 73  350/ 21/ 27 1021.6S
WVE H/P(F/S)=  6/ 7 WND WVE H/P(F/S)=  5/ 7 SWL H/P/D(F/S/D)=  2/ 60/11


END


USA.gov is the U.S. government's official web portal to all federal, state and local government web resources and services.